Time,TemperatureF,DewpointF,PressureIn,WindDirection,WindDirectionDegrees,WindSpeedMPH,WindSpeedGustMPH,Humidity,HourlyPrecipIn,Conditions,Clouds,dailyrainin,SoftwareType,DateUTC
2013-04-26 00:01:00,37.1,33.9,30.37,West,280,0.0,0.0,88,0.00,CLR,,0.00,WeatherDisplay:10.37,2013-04-26 04:01:00,
2013-04-26 00:06:00,37.0,34.1,30.37,West,279,0.0,0.0,89,0.00,CLR,,0.00,WeatherDisplay:10.37,2013-04-26 04:06:00,
2013-04-26 00:11:00,36.9,33.7,30.37,West,280,0.0,0.0,88,0.00,CLR,,0.00,WeatherDisplay:10.37,2013-04-26 04:11:00,
2013-04-26 00:16:00,36.9,34.0,30.37,West,280,0.0,0.0,89,0.00,CLR,,0.00,WeatherDisplay:10.37,2013-04-26 04:16:00,
2013-04-26 00:21:00,36.7,33.8,30.37,West,280,0.0,0.0,89,0.00,CLR,,0.00,WeatherDisplay:10.37,2013-04-26 04:21:00,
2013-04-26 00:26:00,36.6,33.7,30.38,West,279,0.0,0.0,89,0.00,CLR,,0.00,WeatherDisplay:10.37,2013-04-26 04:26:00,
2013-04-26 00:31:00,36.4,33.5,30.38,West,280,0.0,0.0,89,0.00,CLR,,0.00,WeatherDisplay:10.37,2013-04-26 04:31:00,
2013-04-26 00:36:00,36.2,33.3,30.38,North,1,1.0,1.0,89,0.00,CLR,,0.00,WeatherDisplay:10.37,2013-04-26 04:36:00,
2013-04-26 00:41:00,36.2,33.3,30.38,North,1,0.0,0.0,89,0.00,CLR,,0.00,WeatherDisplay:10.37,2013-04-26 04:41:00,
2013-04-26 00:46:00,36.0,33.1,30.38,North,1,1.2,1.2,89,0.00,CLR,,0.00,WeatherDisplay:10.37,2013-04-26 04:46:00,
2013-04-26 00:51:00,36.1,33.5,30.38,North,1,1.2,1.2,90,0.00,CLR,,0.00,WeatherDisplay:10.37,2013-04-26 04:51:00,
2013-04-26 00:56:00,36.2,33.5,30.38,North,1,0.0,0.0,90,0.00,CLR,,0.00,WeatherDisplay:10.37,2013-04-26 04:56:00,
2013-04-26 01:01:00,36.1,33.2,30.38,North,1,0.0,0.0,89,0.00,CLR,,0.00,WeatherDisplay:10.37,2013-04-26 05:01:00,
2013-04-26 01:06:00,35.8,32.9,30.38,North,1,0.0,0.0,89,0.00,,,0.00,WeatherDisplay:10.37,2013-04-26 05:06:00,
2013-04-26 01:11:00,35.6,33.0,30.38,North,1,0.0,0.0,90,0.00,,,0.00,WeatherDisplay:10.37,2013-04-26 05:11:00,
2013-04-26 01:16:00,35.5,32.9,30.39,North,1,0.0,0.0,90,0.00,,,0.00,WeatherDisplay:10.37,2013-04-26 05:16:00,
2013-04-26 01:21:00,35.3,32.7,30.39,North,1,0.0,0.0,90,0.00,,,0.00,WeatherDisplay:10.37,2013-04-26 05:21:00,
2013-04-26 01:26:00,35.0,32.6,30.39,North,1,0.0,0.0,91,0.00,,,0.00,WeatherDisplay:10.37,2013-04-26 05:26:00,
2013-04-26 01:31:00,34.7,32.1,30.39,North,1,0.0,0.0,90,0.00,,,0.00,WeatherDisplay:10.37,2013-04-26 05:31:00,
2013-04-26 01:36:00,34.7,32.3,30.39,North,1,0.0,0.0,91,0.00,,,0.00,WeatherDisplay:10.37,2013-04-26 05:36:00,
2013-04-26 01:41:00,34.7,32.3,30.39,North,1,0.0,0.0,91,0.00,,,0.00,WeatherDisplay:10.37,2013-04-26 05:41:00,
2013-04-26 01:47:00,34.8,32.4,30.39,North,1,0.0,0.0,91,0.00,,,0.00,WeatherDisplay:10.37,2013-04-26 05:47:00,
2013-04-26 01:51:00,34.7,32.3,30.39,North,1,0.0,0.0,91,0.00,,,0.00,WeatherDisplay:10.37,2013-04-26 05:51:00,
2013-04-26 01:57:00,34.5,32.1,30.39,North,1,0.0,0.0,91,0.00,,,0.00,WeatherDisplay:10.37,2013-04-26 05:57:00,
2013-04-26 02:02:00,34.3,31.9,30.39,North,1,0.0,0.0,91,0.00,,,0.00,WeatherDisplay:10.37,2013-04-26 06:02:00,
2013-04-26 02:07:00,34.0,31.6,30.39,North,1,0.0,0.0,91,0.00,,,0.00,WeatherDisplay:10.37,2013-04-26 06:07:00,
2013-04-26 02:12:00,33.9,31.8,30.39,North,1,0.0,0.0,92,0.00,,,0.00,WeatherDisplay:10.37,2013-04-26 06:12:00,
2013-04-26 02:17:00,33.8,31.7,30.39,North,1,0.0,0.0,92,0.00,,,0.00,WeatherDisplay:10.37,2013-04-26 06:17:00,
2013-04-26 02:22:00,33.7,31.6,30.39,North,1,0.0,0.0,92,0.00,,,0.00,WeatherDisplay:10.37,2013-04-26 06:22:00,
2013-04-26 02:27:00,33.7,31.6,30.39,North,1,0.0,0.0,92,0.00,,,0.00,WeatherDisplay:10.37,2013-04-26 06:27:00,
2013-04-26 02:32:00,33.6,31.5,30.39,North,1,0.0,0.0,92,0.00,,,0.00,WeatherDisplay:10.37,2013-04-26 06:32:00,
2013-04-26 02:37:00,33.4,31.3,30.39,North,1,0.0,0.0,92,0.00,,,0.00,WeatherDisplay:10.37,2013-04-26 06:37:00,
2013-04-26 02:42:00,33.2,31.1,30.39,North,1,0.0,0.0,92,0.00,,,0.00,WeatherDisplay:10.37,2013-04-26 06:42:00,
2013-04-26 02:47:00,33.3,31.5,30.39,North,1,0.0,0.0,93,0.00,,,0.00,WeatherDisplay:10.37,2013-04-26 06:47:00,
2013-04-26 02:52:00,33.3,31.2,30.39,North,1,0.0,0.0,92,0.00,,,0.00,WeatherDisplay:10.37,2013-04-26 06:52:00,
2013-04-26 02:57:00,33.1,31.0,30.39,North,1,0.0,0.0,92,0.00,,,0.00,WeatherDisplay:10.37,2013-04-26 06:57:00,
2013-04-26 03:02:00,33.1,31.3,30.39,North,1,0.0,0.0,93,0.00,,,0.00,WeatherDisplay:10.37,2013-04-26 07:02:00,
2013-04-26 03:07:00,32.9,30.8,30.39,North,1,0.0,0.0,92,0.00,,,0.00,WeatherDisplay:10.37,2013-04-26 07:07:00,
2013-04-26 03:12:00,32.9,30.8,30.39,North,1,0.0,0.0,92,0.00,,,0.00,WeatherDisplay:10.37,2013-04-26 07:12:00,
2013-04-26 03:17:00,32.8,30.7,30.39,North,1,0.0,0.0,92,0.00,,,0.00,WeatherDisplay:10.37,2013-04-26 07:17:00,
2013-04-26 03:22:00,32.8,30.7,30.40,North,1,0.0,0.0,92,0.00,,,0.00,WeatherDisplay:10.37,2013-04-26 07:22:00,
2013-04-26 03:27:00,32.7,30.6,30.39,North,1,0.0,0.0,92,0.00,,,0.00,WeatherDisplay:10.37,2013-04-26 07:27:00,
2013-04-26 03:32:00,32.5,30.4,30.39,North,1,0.0,0.0,92,0.00,,,0.00,WeatherDisplay:10.37,2013-04-26 07:32:00,
2013-04-26 03:37:00,32.5,30.4,30.40,North,1,0.0,0.0,92,0.00,,,0.00,WeatherDisplay:10.37,2013-04-26 07:37:00,
2013-04-26 03:42:00,32.6,30.8,30.40,North,1,0.0,0.0,93,0.00,,,0.00,WeatherDisplay:10.37,2013-04-26 07:42:00,
2013-04-26 03:47:00,32.5,30.4,30.40,North,1,0.0,0.0,92,0.00,,,0.00,WeatherDisplay:10.37,2013-04-26 07:47:00,
2013-04-26 03:52:00,32.4,30.3,30.39,North,1,0.0,0.0,92,0.00,,,0.00,WeatherDisplay:10.37,2013-04-26 07:52:00,
2013-04-26 03:57:00,32.5,30.4,30.39,North,1,0.0,0.0,92,0.00,,,0.00,WeatherDisplay:10.37,2013-04-26 07:57:00,
2013-04-26 04:02:00,32.4,30.3,30.40,North,1,0.0,0.0,92,0.00,,,0.00,WeatherDisplay:10.37,2013-04-26 08:02:00,
2013-04-26 04:07:00,32.3,30.2,30.40,North,1,0.0,0.0,92,0.00,,,0.00,WeatherDisplay:10.37,2013-04-26 08:07:00,
2013-04-26 04:12:00,32.1,30.0,30.40,North,1,0.0,0.0,92,0.00,,,0.00,WeatherDisplay:10.37,2013-04-26 08:12:00,
2013-04-26 04:17:00,31.8,29.7,30.40,North,1,0.0,0.0,92,0.00,,,0.00,WeatherDisplay:10.37,2013-04-26 08:17:00,
2013-04-26 04:22:00,32.0,30.2,30.40,North,1,0.0,0.0,93,0.00,,,0.00,WeatherDisplay:10.37,2013-04-26 08:22:00,
2013-04-26 04:27:00,32.0,30.2,30.40,North,1,0.0,0.0,93,0.00,,,0.00,WeatherDisplay:10.37,2013-04-26 08:27:00,
2013-04-26 04:32:00,31.9,30.1,30.40,North,1,0.0,0.0,93,0.00,,,0.00,WeatherDisplay:10.37,2013-04-26 08:32:00,
2013-04-26 04:37:00,31.8,30.0,30.40,North,1,0.0,0.0,93,0.00,,,0.00,WeatherDisplay:10.37,2013-04-26 08:37:00,
2013-04-26 04:42:00,31.7,29.9,30.40,North,1,0.0,0.0,93,0.00,,,0.00,WeatherDisplay:10.37,2013-04-26 08:42:00,
2013-04-26 04:47:00,31.6,29.8,30.40,North,1,0.0,0.0,93,0.00,,,0.00,WeatherDisplay:10.37,2013-04-26 08:47:00,
2013-04-26 04:52:00,31.5,29.7,30.40,North,1,0.0,0.0,93,0.00,,,0.00,WeatherDisplay:10.37,2013-04-26 08:52:00,
2013-04-26 04:57:00,31.5,29.7,30.40,North,1,0.0,0.0,93,0.00,,,0.00,WeatherDisplay:10.37,2013-04-26 08:57:00,
2013-04-26 05:02:00,31.5,29.7,30.40,North,1,0.0,0.0,93,0.00,,,0.00,WeatherDisplay:10.37,2013-04-26 09:02:00,
2013-04-26 05:07:00,31.5,29.7,30.40,North,1,0.0,0.0,93,0.00,,,0.00,WeatherDisplay:10.37,2013-04-26 09:07:00,
2013-04-26 05:12:00,31.3,29.5,30.40,North,1,0.0,0.0,93,0.00,,,0.00,WeatherDisplay:10.37,2013-04-26 09:12:00,
2013-04-26 05:17:00,31.2,29.4,30.40,North,1,0.0,0.0,93,0.00,,,0.00,WeatherDisplay:10.37,2013-04-26 09:17:00,
2013-04-26 05:22:00,31.0,29.2,30.40,North,1,0.0,0.0,93,0.00,,,0.00,WeatherDisplay:10.37,2013-04-26 09:22:00,
2013-04-26 05:27:00,31.0,29.2,30.40,North,1,0.0,0.0,93,0.00,,,0.00,WeatherDisplay:10.37,2013-04-26 09:27:00,
2013-04-26 05:32:00,31.2,29.4,30.40,North,1,0.0,0.0,93,0.00,,,0.00,WeatherDisplay:10.37,2013-04-26 09:32:00,
2013-04-26 05:37:00,31.1,29.3,30.40,North,1,0.0,0.0,93,0.00,,,0.00,WeatherDisplay:10.37,2013-04-26 09:37:00,
2013-04-26 05:42:00,31.0,29.2,30.40,North,1,0.0,0.0,93,0.00,,,0.00,WeatherDisplay:10.37,2013-04-26 09:42:00,
2013-04-26 05:47:00,30.9,29.1,30.40,North,1,0.0,0.0,93,0.00,,,0.00,WeatherDisplay:10.37,2013-04-26 09:47:00,
2013-04-26 05:52:00,30.8,29.0,30.40,North,1,0.0,0.0,93,0.00,,,0.00,WeatherDisplay:10.37,2013-04-26 09:52:00,
2013-04-26 05:57:00,30.9,29.1,30.41,North,1,0.0,0.0,93,0.00,,,0.00,WeatherDisplay:10.37,2013-04-26 09:57:00,
2013-04-26 06:02:00,30.6,28.8,30.41,North,1,0.0,0.0,93,0.00,,,0.00,WeatherDisplay:10.37,2013-04-26 10:02:00,
2013-04-26 06:07:00,30.6,29.1,30.41,North,1,0.0,0.0,94,0.00,,,0.00,WeatherDisplay:10.37,2013-04-26 10:07:00,
2013-04-26 06:12:00,30.6,29.1,30.41,North,1,0.0,0.0,94,0.00,CLR,,0.00,WeatherDisplay:10.37,2013-04-26 10:12:00,
2013-04-26 06:17:00,30.6,29.1,30.41,North,1,0.0,0.0,94,0.00,CLR,,0.00,WeatherDisplay:10.37,2013-04-26 10:17:00,
2013-04-26 06:22:00,30.3,28.5,30.41,North,1,0.0,0.0,93,0.00,CLR,,0.00,WeatherDisplay:10.37,2013-04-26 10:22:00,
2013-04-26 06:27:00,30.1,28.6,30.42,North,1,0.0,0.0,94,0.00,CLR,,0.00,WeatherDisplay:10.37,2013-04-26 10:27:00,
2013-04-26 06:32:00,30.0,28.5,30.42,North,1,0.0,0.0,94,0.00,CLR,,0.00,WeatherDisplay:10.37,2013-04-26 10:32:00,
2013-04-26 06:37:00,30.1,28.6,30.42,North,1,0.0,0.0,94,0.00,CLR,,0.00,WeatherDisplay:10.37,2013-04-26 10:37:00,
2013-04-26 06:42:00,30.2,28.7,30.42,North,1,0.0,0.0,94,0.00,CLR,,0.00,WeatherDisplay:10.37,2013-04-26 10:42:00,
2013-04-26 06:47:00,30.3,28.8,30.42,North,1,0.0,0.0,94,0.00,CLR,,0.00,WeatherDisplay:10.37,2013-04-26 10:47:00,
2013-04-26 06:52:00,30.3,28.8,30.43,North,1,0.0,0.0,94,0.00,CLR,,0.00,WeatherDisplay:10.37,2013-04-26 10:52:00,
2013-04-26 06:57:00,30.2,28.7,30.43,North,1,0.0,0.0,94,0.00,CLR,,0.00,WeatherDisplay:10.37,2013-04-26 10:57:00,
2013-04-26 07:02:00,30.8,29.5,30.43,North,1,0.0,0.0,95,0.00,CLR,,0.00,WeatherDisplay:10.37,2013-04-26 11:02:00,
2013-04-26 07:07:00,31.2,29.9,30.43,North,1,0.0,0.0,95,0.00,CLR,,0.00,WeatherDisplay:10.37,2013-04-26 11:07:00,
2013-04-26 07:12:00,31.6,30.1,30.43,North,1,0.0,0.0,94,0.00,CLR,,0.00,WeatherDisplay:10.37,2013-04-26 11:12:00,
2013-04-26 07:17:00,32.5,31.2,30.44,North,1,0.0,0.0,95,0.00,CLR,,0.00,WeatherDisplay:10.37,2013-04-26 11:17:00,
2013-04-26 07:22:00,33.6,32.1,30.44,North,1,0.0,0.0,94,0.00,CLR,,0.00,WeatherDisplay:10.37,2013-04-26 11:22:00,
2013-04-26 07:27:00,34.6,33.1,30.44,North,1,0.0,0.0,94,0.00,CLR,,0.00,WeatherDisplay:10.37,2013-04-26 11:27:00,
2013-04-26 07:33:00,35.6,33.8,30.44,North,1,0.0,0.0,93,0.00,CLR,,0.00,WeatherDisplay:10.37,2013-04-26 11:33:00,
2013-04-26 07:38:00,37.2,35.1,30.44,North,1,0.0,0.0,92,0.00,CLR,,0.00,WeatherDisplay:10.37,2013-04-26 11:38:00,
2013-04-26 07:43:00,38.0,34.8,30.44,North,1,0.0,0.0,88,0.00,CLR,,0.00,WeatherDisplay:10.37,2013-04-26 11:43:00,
2013-04-26 07:48:00,38.3,34.8,30.44,North,1,0.0,0.0,87,0.00,CLR,,0.00,WeatherDisplay:10.37,2013-04-26 11:48:00,
2013-04-26 07:53:00,38.9,35.4,30.44,North,1,0.0,0.0,87,0.00,CLR,,0.00,WeatherDisplay:10.37,2013-04-26 11:53:00,
2013-04-26 07:58:00,39.6,35.8,30.45,North,1,0.0,0.0,86,0.00,CLR,,0.00,WeatherDisplay:10.37,2013-04-26 11:58:00,
2013-04-26 08:03:00,40.2,35.8,30.44,ESE,118,1.2,1.2,84,0.00,CLR,,0.00,WeatherDisplay:10.37,2013-04-26 12:03:00,
2013-04-26 08:08:00,41.1,36.6,30.45,SE,133,2.3,2.3,84,0.00,CLR,,0.00,WeatherDisplay:10.37,2013-04-26 12:08:00,
2013-04-26 08:13:00,41.6,36.8,30.45,SSE,154,2.3,2.3,83,0.00,CLR,,0.00,WeatherDisplay:10.37,2013-04-26 12:13:00,
2013-04-26 08:18:00,42.0,36.6,30.45,ESE,115,2.3,2.3,81,0.00,CLR,,0.00,WeatherDisplay:10.37,2013-04-26 12:18:00,
2013-04-26 08:23:00,42.5,36.8,30.45,East,88,2.3,2.3,80,0.00,CLR,,0.00,WeatherDisplay:10.37,2013-04-26 12:23:00,
2013-04-26 08:28:00,43.1,37.0,30.45,SE,127,2.3,2.3,79,0.00,CLR,,0.00,WeatherDisplay:10.37,2013-04-26 12:28:00,
2013-04-26 08:33:00,43.5,37.1,30.45,NNE,29,3.0,3.0,78,0.00,CLR,,0.00,WeatherDisplay:10.37,2013-04-26 12:33:00,
2013-04-26 08:38:00,43.9,37.5,30.46,SE,136,1.2,1.2,78,0.00,CLR,,0.00,WeatherDisplay:10.37,2013-04-26 12:38:00,
2013-04-26 08:43:00,45.1,38.0,30.46,ENE,73,2.3,2.3,76,0.00,CLR,,0.00,WeatherDisplay:10.37,2013-04-26 12:43:00,
2013-04-26 08:48:00,45.4,37.2,30.45,East,80,2.3,2.3,73,0.00,CLR,,0.00,WeatherDisplay:10.37,2013-04-26 12:48:00,
2013-04-26 08:53:00,45.2,37.1,30.45,ENE,75,1.2,1.2,73,0.00,CLR,,0.00,WeatherDisplay:10.37,2013-04-26 12:53:00,
2013-04-26 08:58:00,45.5,37.7,30.46,ESE,109,2.3,2.3,74,0.00,CLR,,0.00,WeatherDisplay:10.37,2013-04-26 12:58:00,
2013-04-26 09:03:00,46.5,37.6,30.46,ESE,109,2.3,2.3,71,0.00,CLR,,0.00,WeatherDisplay:10.37,2013-04-26 13:03:00,
2013-04-26 09:08:00,47.3,38.0,30.45,East,95,3.5,3.5,70,0.00,CLR,,0.00,WeatherDisplay:10.37,2013-04-26 13:08:00,
2013-04-26 09:13:00,48.0,37.9,30.45,NE,46,1.2,1.2,68,0.00,CLR,,0.00,WeatherDisplay:10.37,2013-04-26 13:13:00,
2013-04-26 09:18:00,48.4,38.3,30.45,ESE,103,1.2,1.2,68,0.00,CLR,,0.00,WeatherDisplay:10.37,2013-04-26 13:18:00,
2013-04-26 09:23:00,49.5,39.7,30.45,East,86,2.0,2.0,69,0.00,CLR,,0.00,WeatherDisplay:10.37,2013-04-26 13:23:00,
2013-04-26 09:28:00,50.5,39.2,30.45,North,355,3.5,3.5,65,0.00,CLR,,0.00,WeatherDisplay:10.37,2013-04-26 13:28:00,
2013-04-26 09:33:00,51.5,40.1,30.45,NNW,345,1.2,1.2,65,0.00,CLR,,0.00,WeatherDisplay:10.37,2013-04-26 13:33:00,
2013-04-26 09:38:00,52.3,38.4,30.45,SE,127,3.5,3.5,59,0.00,CLR,,0.00,WeatherDisplay:10.37,2013-04-26 13:38:00,
2013-04-26 09:43:00,53.1,36.9,30.45,SE,132,2.3,2.3,54,0.00,CLR,,0.00,WeatherDisplay:10.37,2013-04-26 13:43:00,
2013-04-26 09:48:00,53.5,36.3,30.45,NNE,24,3.5,3.5,52,0.00,CLR,,0.00,WeatherDisplay:10.37,2013-04-26 13:48:00,
2013-04-26 09:53:00,54.0,37.7,30.45,ESE,115,3.5,3.5,54,0.00,CLR,,0.00,WeatherDisplay:10.37,2013-04-26 13:53:00,
2013-04-26 09:58:00,53.9,37.6,30.45,NE,36,3.5,3.5,54,0.00,CLR,,0.00,WeatherDisplay:10.37,2013-04-26 13:58:00,
2013-04-26 10:03:00,53.6,35.9,30.46,East,99,5.0,5.0,51,0.00,CLR,,0.00,WeatherDisplay:10.37,2013-04-26 14:03:00,
2013-04-26 10:08:00,53.8,37.1,30.45,SSE,165,3.5,3.5,53,0.00,CLR,,0.00,WeatherDisplay:10.37,2013-04-26 14:08:00,
2013-04-26 10:13:00,54.5,37.2,30.45,NE,51,4.0,4.0,52,0.00,CLR,,0.00,WeatherDisplay:10.37,2013-04-26 14:13:00,
2013-04-26 10:18:00,54.6,36.8,30.45,SE,134,3.5,3.5,51,0.00,CLR,,0.00,WeatherDisplay:10.37,2013-04-26 14:18:00,
2013-04-26 10:23:00,55.0,36.2,30.45,SE,129,6.9,6.9,49,0.00,CLR,,0.00,WeatherDisplay:10.37,2013-04-26 14:23:00,
2013-04-26 10:28:00,54.9,37.6,30.44,East,82,4.6,4.6,52,0.00,CLR,,0.00,WeatherDisplay:10.37,2013-04-26 14:28:00,
2013-04-26 10:33:00,55.1,36.8,30.44,East,84,6.0,6.0,50,0.00,CLR,,0.00,WeatherDisplay:10.37,2013-04-26 14:33:00,
2013-04-26 10:38:00,55.1,36.8,30.44,NNE,32,5.0,5.0,50,0.00,CLR,,0.00,WeatherDisplay:10.37,2013-04-26 14:38:00,
2013-04-26 10:43:00,55.1,38.3,30.43,East,84,4.0,4.0,53,0.00,CLR,,0.00,WeatherDisplay:10.37,2013-04-26 14:43:00,
2013-04-26 10:48:00,55.2,36.4,30.43,East,92,5.8,5.8,49,0.00,CLR,,0.00,WeatherDisplay:10.37,2013-04-26 14:48:00,
2013-04-26 10:53:00,55.0,37.2,30.43,NNE,13,2.3,2.3,51,0.00,CLR,,0.00,WeatherDisplay:10.37,2013-04-26 14:53:00,
2013-04-26 10:58:00,55.7,39.3,30.43,NNW,328,3.5,3.5,54,0.00,CLR,,0.00,WeatherDisplay:10.37,2013-04-26 14:58:00,
2013-04-26 11:03:00,55.8,37.4,30.43,NE,47,6.9,6.9,50,0.00,CLR,,0.00,WeatherDisplay:10.37,2013-04-26 15:03:00,
2013-04-26 11:08:00,55.9,37.0,30.43,ESE,109,4.6,4.6,49,0.00,CLR,,0.00,WeatherDisplay:10.37,2013-04-26 15:08:00,
2013-04-26 11:13:00,55.9,38.0,30.43,NNE,32,4.0,4.0,51,0.00,CLR,,0.00,WeatherDisplay:10.37,2013-04-26 15:13:00,
2013-04-26 11:18:00,56.2,36.2,30.43,East,89,4.6,4.6,47,0.00,CLR,,0.00,WeatherDisplay:10.37,2013-04-26 15:18:00,
2013-04-26 11:23:00,56.6,38.2,30.43,East,99,4.6,4.6,50,0.00,CLR,,0.00,WeatherDisplay:10.37,2013-04-26 15:23:00,
2013-04-26 11:28:00,57.1,39.6,30.44,SE,135,5.0,5.0,52,0.00,CLR,,0.00,WeatherDisplay:10.37,2013-04-26 15:28:00,
2013-04-26 11:33:00,57.8,38.2,30.44,SE,146,2.3,2.3,48,0.00,CLR,,0.00,WeatherDisplay:10.37,2013-04-26 15:33:00,
2013-04-26 11:38:00,58.3,37.6,30.45,ENE,62,4.6,4.6,46,0.00,CLR,,0.00,WeatherDisplay:10.37,2013-04-26 15:38:00,
2013-04-26 11:43:00,57.7,37.0,30.44,WNW,289,1.2,0.0,46,0.00,CLR,,0.00,WeatherDisplay:10.37,2013-04-26 15:43:00,
2013-04-26 11:48:00,58.3,37.0,30.44,NW,326,5.0,5.0,45,0.00,CLR,,0.00,WeatherDisplay:10.37,2013-04-26 15:48:00,
2013-04-26 11:53:00,58.0,36.2,30.45,NW,317,4.0,4.0,44,0.00,CLR,,0.00,WeatherDisplay:10.37,2013-04-26 15:53:00,
2013-04-26 11:58:00,57.8,37.1,30.45,NW,310,5.8,5.8,46,0.00,CLR,,0.00,WeatherDisplay:10.37,2013-04-26 15:58:00,
2013-04-26 12:03:00,58.2,36.4,30.45,NW,306,4.6,4.6,44,0.00,CLR,,0.00,WeatherDisplay:10.37,2013-04-26 16:03:00,
2013-04-26 12:08:00,58.3,36.5,30.45,WNW,292,4.6,4.6,44,0.00,CLR,,0.00,WeatherDisplay:10.37,2013-04-26 16:08:00,
2013-04-26 12:13:00,58.9,37.0,30.44,WNW,283,3.5,3.5,44,0.00,CLR,,0.00,WeatherDisplay:10.37,2013-04-26 16:13:00,
2013-04-26 12:18:00,59.8,35.4,30.44,NNE,29,3.5,3.5,40,0.00,CLR,,0.00,WeatherDisplay:10.37,2013-04-26 16:18:00,
2013-04-26 12:23:00,59.6,37.1,30.44,WNW,282,4.0,4.0,43,0.00,CLR,,0.00,WeatherDisplay:10.37,2013-04-26 16:23:00,
2013-04-26 12:28:00,59.5,37.6,30.44,East,101,4.6,4.6,44,0.00,CLR,,0.00,WeatherDisplay:10.37,2013-04-26 16:28:00,
2013-04-26 12:33:00,59.7,37.2,30.44,WNW,299,7.0,7.0,43,0.00,CLR,,0.00,WeatherDisplay:10.37,2013-04-26 16:33:00,
2013-04-26 12:38:00,59.6,33.9,30.44,NNW,338,1.2,0.0,38,0.00,CLR,,0.00,WeatherDisplay:10.37,2013-04-26 16:38:00,
2013-04-26 12:43:00,60.2,35.1,30.44,ENE,74,3.5,3.5,39,0.00,CLR,,0.00,WeatherDisplay:10.37,2013-04-26 16:43:00,
2013-04-26 12:48:00,61.6,38.3,30.43,ENE,77,4.0,4.0,42,0.00,CLR,,0.00,WeatherDisplay:10.37,2013-04-26 16:48:00,
2013-04-26 12:53:00,60.9,37.0,30.43,WNW,292,2.3,2.3,41,0.00,CLR,,0.00,WeatherDisplay:10.37,2013-04-26 16:53:00,
2013-04-26 12:58:00,62.3,38.3,30.43,NW,306,4.6,4.6,41,0.00,CLR,,0.00,WeatherDisplay:10.37,2013-04-26 16:58:00,
2013-04-26 13:03:00,61.8,38.4,30.43,ENE,67,4.0,4.4,42,0.00,CLR,,0.00,WeatherDisplay:10.37,2013-04-26 17:03:00,
2013-04-26 13:08:00,61.0,37.1,30.42,East,95,6.9,6.9,41,0.00,CLR,,0.00,WeatherDisplay:10.37,2013-04-26 17:08:00,
2013-04-26 13:13:00,61.4,36.8,30.42,NNW,330,9.2,9.2,40,0.00,CLR,,0.00,WeatherDisplay:10.37,2013-04-26 17:13:00,
2013-04-26 13:19:00,62.0,38.0,30.42,WSW,248,4.6,4.6,41,0.00,CLR,,0.00,WeatherDisplay:10.37,2013-04-26 17:19:00,
2013-04-26 13:24:00,62.5,36.5,30.42,ENE,64,5.0,5.0,38,0.00,CLR,,0.00,WeatherDisplay:10.37,2013-04-26 17:24:00,
2013-04-26 13:29:00,62.5,35.9,30.42,WNW,284,3.5,3.5,37,0.00,CLR,,0.00,WeatherDisplay:10.37,2013-04-26 17:29:00,
2013-04-26 13:34:00,63.5,38.7,30.42,WNW,303,6.9,6.9,40,0.00,CLR,,0.00,WeatherDisplay:10.37,2013-04-26 17:34:00,
2013-04-26 13:39:00,63.4,34.5,30.41,NNE,28,6.9,6.9,34,0.00,CLR,,0.00,WeatherDisplay:10.37,2013-04-26 17:39:00,
2013-04-26 13:44:00,62.9,36.2,30.41,ENE,58,4.6,4.6,37,0.00,CLR,,0.00,WeatherDisplay:10.37,2013-04-26 17:44:00,
2013-04-26 13:49:00,63.8,38.4,30.41,WSW,253,2.0,2.0,39,0.00,CLR,,0.00,WeatherDisplay:10.37,2013-04-26 17:49:00,
2013-04-26 13:54:00,65.5,38.5,30.41,WSW,238,1.2,1.2,37,0.00,CLR,,0.00,WeatherDisplay:10.37,2013-04-26 17:54:00,
2013-04-26 13:59:00,66.7,39.6,30.41,NW,324,7.0,7.0,37,0.00,CLR,,0.00,WeatherDisplay:10.37,2013-04-26 17:59:00,
2013-04-26 14:04:00,65.4,41.7,30.40,WNW,288,5.0,5.0,42,0.00,CLR,,0.00,WeatherDisplay:10.37,2013-04-26 18:04:00,
2013-04-26 14:09:00,65.7,37.3,30.40,WNW,300,2.3,2.3,35,0.00,CLR,,0.00,WeatherDisplay:10.37,2013-04-26 18:09:00,
2013-04-26 14:14:00,64.5,35.5,30.40,WNW,295,4.6,4.6,34,0.00,CLR,,0.00,WeatherDisplay:10.37,2013-04-26 18:14:00,
2013-04-26 14:19:00,64.7,37.1,30.40,WSW,248,5.8,5.8,36,0.00,CLR,,0.00,WeatherDisplay:10.37,2013-04-26 18:19:00,
2013-04-26 14:24:00,65.4,38.4,30.39,WNW,293,3.5,3.5,37,0.00,CLR,,0.00,WeatherDisplay:10.37,2013-04-26 18:24:00,
2013-04-26 14:29:00,65.8,37.4,30.39,WSW,245,3.5,3.5,35,0.00,CLR,,0.00,WeatherDisplay:10.37,2013-04-26 18:29:00,
2013-04-26 14:34:00,66.1,36.1,30.39,WSW,242,5.8,5.8,33,0.00,CLR,,0.00,WeatherDisplay:10.37,2013-04-26 18:34:00,
2013-04-26 14:39:00,66.3,39.9,30.39,NW,314,4.6,4.6,38,0.00,CLR,,0.00,WeatherDisplay:10.37,2013-04-26 18:39:00,
2013-04-26 14:44:00,66.1,36.1,30.39,WNW,286,8.1,8.1,33,0.00,CLR,,0.00,WeatherDisplay:10.37,2013-04-26 18:44:00,
2013-04-26 14:49:00,65.6,36.5,30.39,West,259,9.2,9.2,34,0.00,CLR,,0.00,WeatherDisplay:10.37,2013-04-26 18:49:00,
2013-04-26 14:54:00,65.9,38.9,30.39,SW,234,5.0,5.0,37,0.00,CLR,,0.00,WeatherDisplay:10.37,2013-04-26 18:54:00,
2013-04-26 14:59:00,66.1,39.1,30.39,WNW,284,3.5,3.5,37,0.00,CLR,,0.00,WeatherDisplay:10.37,2013-04-26 18:59:00,
2013-04-26 15:04:00,66.1,36.9,30.39,WNW,291,5.8,5.8,34,0.00,CLR,,0.00,WeatherDisplay:10.37,2013-04-26 19:04:00,
2013-04-26 15:09:00,65.8,34.3,30.39,NW,317,8.1,8.1,31,0.00,CLR,,0.00,WeatherDisplay:10.37,2013-04-26 19:09:00,
2013-04-26 15:14:00,65.8,38.1,30.38,WNW,302,3.5,3.5,36,0.00,CLR,,0.00,WeatherDisplay:10.37,2013-04-26 19:14:00,
2013-04-26 15:19:00,66.3,35.5,30.38,WNW,300,9.0,9.0,32,0.00,CLR,,0.00,WeatherDisplay:10.37,2013-04-26 19:19:00,
2013-04-26 15:24:00,66.7,35.9,30.38,West,269,5.8,5.8,32,0.00,CLR,,0.00,WeatherDisplay:10.37,2013-04-26 19:24:00,
2013-04-26 15:29:00,66.8,35.2,30.38,West,276,5.8,5.8,31,0.00,CLR,,0.00,WeatherDisplay:10.37,2013-04-26 19:29:00,
2013-04-26 15:34:00,66.7,33.4,30.37,WSW,242,3.5,3.8,29,0.00,CLR,,0.00,WeatherDisplay:10.37,2013-04-26 19:34:00,
2013-04-26 15:39:00,66.7,35.1,30.36,WSW,242,5.8,5.8,31,0.00,CLR,,0.00,WeatherDisplay:10.37,2013-04-26 19:39:00,
2013-04-26 15:44:00,66.7,32.5,30.36,WSW,246,9.2,9.2,28,0.00,CLR,,0.00,WeatherDisplay:10.37,2013-04-26 19:44:00,
2013-04-26 15:49:00,66.6,34.2,30.36,WNW,283,2.3,2.3,30,0.00,CLR,,0.00,WeatherDisplay:10.37,2013-04-26 19:49:00,
2013-04-26 15:54:00,66.6,32.5,30.35,NW,314,6.9,6.9,28,0.00,CLR,,0.00,WeatherDisplay:10.37,2013-04-26 19:54:00,
2013-04-26 15:59:00,66.4,34.0,30.35,WSW,248,6.9,6.9,30,0.00,CLR,,0.00,WeatherDisplay:10.37,2013-04-26 19:59:00,
2013-04-26 16:04:00,66.4,32.3,30.35,WNW,283,3.5,3.5,28,0.00,CLR,,0.00,WeatherDisplay:10.37,2013-04-26 20:04:00,
2013-04-26 16:09:00,66.3,31.3,30.34,WNW,299,5.8,5.8,27,0.00,CLR,,0.00,WeatherDisplay:10.37,2013-04-26 20:09:00,
2013-04-26 16:14:00,66.0,30.1,30.34,WSW,258,4.0,4.0,26,0.00,CLR,,0.00,WeatherDisplay:10.37,2013-04-26 20:14:00,
2013-04-26 16:19:00,66.2,29.3,30.34,WSW,250,4.6,4.6,25,0.00,CLR,,0.00,WeatherDisplay:10.37,2013-04-26 20:19:00,
2013-04-26 16:24:00,65.9,30.0,30.34,WSW,238,4.6,4.6,26,0.00,CLR,,0.00,WeatherDisplay:10.37,2013-04-26 20:24:00,
2013-04-26 16:29:00,65.9,27.0,30.34,WSW,247,5.8,5.8,23,0.00,CLR,,0.00,WeatherDisplay:10.37,2013-04-26 20:29:00,
2013-04-26 16:34:00,65.9,30.0,30.34,NW,309,4.6,4.6,26,0.00,CLR,,0.00,WeatherDisplay:10.37,2013-04-26 20:34:00,
2013-04-26 16:39:00,65.6,28.8,30.34,WSW,255,5.8,5.8,25,0.00,CLR,,0.00,WeatherDisplay:10.37,2013-04-26 20:39:00,
2013-04-26 16:44:00,65.6,28.8,30.33,WSW,253,4.6,4.6,25,0.00,CLR,,0.00,WeatherDisplay:10.37,2013-04-26 20:44:00,
2013-04-26 16:49:00,65.4,27.6,30.33,WNW,298,3.5,3.5,24,0.00,CLR,,0.00,WeatherDisplay:10.37,2013-04-26 20:49:00,
2013-04-26 16:54:00,65.7,29.8,30.33,WNW,293,3.0,3.0,26,0.00,CLR,,0.00,WeatherDisplay:10.37,2013-04-26 20:54:00,
2013-04-26 16:59:00,66.0,29.1,30.33,WSW,245,3.5,3.5,25,0.00,CLR,,0.00,WeatherDisplay:10.37,2013-04-26 20:59:00,
2013-04-26 17:04:00,65.9,28.1,30.33,WSW,255,4.6,4.6,24,0.00,CLR,,0.00,WeatherDisplay:10.37,2013-04-26 21:04:00,
2013-04-26 17:09:00,65.9,30.0,30.33,WSW,258,3.5,3.5,26,0.00,CLR,,0.00,WeatherDisplay:10.37,2013-04-26 21:09:00,
2013-04-26 17:14:00,65.9,28.1,30.33,WSW,257,4.6,4.6,24,0.00,CLR,,0.00,WeatherDisplay:10.37,2013-04-26 21:14:00,
2013-04-26 17:19:00,65.7,28.9,30.33,NW,309,5.8,5.8,25,0.00,CLR,,0.00,WeatherDisplay:10.37,2013-04-26 21:19:00,
2013-04-26 17:24:00,65.5,27.7,30.33,WNW,297,3.0,3.0,24,0.00,CLR,,0.00,WeatherDisplay:10.37,2013-04-26 21:24:00,
2013-04-26 17:29:00,65.6,28.8,30.33,West,269,3.5,3.5,25,0.00,CLR,,0.00,WeatherDisplay:10.37,2013-04-26 21:29:00,
2013-04-26 17:34:00,65.6,27.8,30.32,West,264,2.3,2.3,24,0.00,CLR,,0.00,WeatherDisplay:10.37,2013-04-26 21:34:00,
2013-04-26 17:39:00,65.8,30.9,30.33,WSW,250,2.3,2.3,27,0.00,CLR,,0.00,WeatherDisplay:10.37,2013-04-26 21:39:00,
2013-04-26 17:44:00,65.8,28.0,30.33,WSW,251,3.5,3.5,24,0.00,CLR,,0.00,WeatherDisplay:10.37,2013-04-26 21:44:00,
2013-04-26 17:49:00,65.8,32.6,30.33,West,276,2.3,0.0,29,0.00,CLR,,0.00,WeatherDisplay:10.37,2013-04-26 21:49:00,
2013-04-26 17:54:00,65.6,25.7,30.33,WSW,255,4.6,4.6,22,0.00,CLR,,0.00,WeatherDisplay:10.37,2013-04-26 21:54:00,
2013-04-26 17:59:00,65.3,25.4,30.33,WSW,241,4.0,4.0,22,0.00,CLR,,0.00,WeatherDisplay:10.37,2013-04-26 21:59:00,
2013-04-26 18:04:00,65.1,27.4,30.33,WSW,248,2.3,2.3,24,0.00,CLR,,0.00,WeatherDisplay:10.37,2013-04-26 22:04:00,
2013-04-26 18:09:00,65.1,28.4,30.33,WSW,256,3.5,3.5,25,0.00,CLR,,0.00,WeatherDisplay:10.37,2013-04-26 22:09:00,
2013-04-26 18:14:00,65.0,27.3,30.33,WSW,238,3.5,3.5,24,0.00,CLR,,0.00,WeatherDisplay:10.37,2013-04-26 22:14:00,
2013-04-26 18:19:00,64.8,29.1,30.33,West,275,1.0,1.0,26,0.00,CLR,,0.00,WeatherDisplay:10.37,2013-04-26 22:19:00,
2013-04-26 18:24:00,64.7,28.0,30.34,West,271,1.2,1.2,25,0.00,CLR,,0.00,WeatherDisplay:10.37,2013-04-26 22:24:00,
2013-04-26 18:29:00,64.5,27.9,30.34,WNW,297,3.5,3.5,25,0.00,CLR,,0.00,WeatherDisplay:10.37,2013-04-26 22:29:00,
2013-04-26 18:34:00,64.2,30.4,30.34,West,276,2.3,2.3,28,0.00,CLR,,0.00,WeatherDisplay:10.37,2013-04-26 22:34:00,
2013-04-26 18:39:00,64.0,31.9,30.34,West,269,0.0,0.4,30,0.00,CLR,,0.00,WeatherDisplay:10.37,2013-04-26 22:39:00,
2013-04-26 18:44:00,63.9,31.8,30.34,West,269,0.0,0.0,30,0.00,CLR,,0.00,WeatherDisplay:10.37,2013-04-26 22:44:00,
2013-04-26 18:49:00,63.7,31.7,30.35,West,268,1.2,1.2,30,0.00,CLR,,0.00,WeatherDisplay:10.37,2013-04-26 22:49:00,
2013-04-26 18:54:00,63.7,30.8,30.35,West,268,0.0,0.0,29,0.00,CLR,,0.00,WeatherDisplay:10.37,2013-04-26 22:54:00,
2013-04-26 18:59:00,63.6,32.4,30.35,West,270,0.0,0.0,31,0.00,CLR,,0.00,WeatherDisplay:10.37,2013-04-26 22:59:00,
2013-04-26 19:04:00,63.5,31.5,30.35,West,268,1.0,1.0,30,0.00,CLR,,0.00,WeatherDisplay:10.37,2013-04-26 23:04:00,
2013-04-26 19:10:00,63.5,33.1,30.35,West,267,1.2,0.0,32,0.00,CLR,,0.00,WeatherDisplay:10.37,2013-04-26 23:10:00,
2013-04-26 19:14:00,63.3,33.7,30.35,West,267,1.2,0.0,33,0.00,CLR,,0.00,WeatherDisplay:10.37,2013-04-26 23:14:00,
2013-04-26 19:20:00,63.0,33.4,30.35,West,267,0.0,0.0,33,0.00,CLR,,0.00,WeatherDisplay:10.37,2013-04-26 23:20:00,
2013-04-26 19:25:00,62.7,34.6,30.35,West,267,0.0,0.0,35,0.00,CLR,,0.00,WeatherDisplay:10.37,2013-04-26 23:25:00,
2013-04-26 19:30:00,62.4,35.1,30.36,West,267,0.0,0.0,36,0.00,CLR,,0.00,WeatherDisplay:10.37,2013-04-26 23:30:00,
2013-04-26 19:35:00,62.1,34.8,30.35,West,267,0.0,0.0,36,0.00,CLR,,0.00,WeatherDisplay:10.37,2013-04-26 23:35:00,
2013-04-26 19:40:00,61.6,36.4,30.35,West,267,0.0,0.0,39,0.00,CLR,,0.00,WeatherDisplay:10.37,2013-04-26 23:40:00,
2013-04-26 19:45:00,61.1,36.6,30.35,West,267,0.0,0.0,40,0.00,CLR,,0.00,WeatherDisplay:10.37,2013-04-26 23:45:00,
2013-04-26 19:50:00,60.4,35.9,30.36,West,267,0.0,0.0,40,0.00,CLR,,0.00,WeatherDisplay:10.37,2013-04-26 23:50:00,
2013-04-26 20:05:00,58.4,37.1,30.36,West,267,0.0,0.0,45,0.00,CLR,,0.00,WeatherDisplay:10.37,2013-04-27 00:05:00,
2013-04-26 20:10:00,57.7,38.1,30.36,West,267,0.0,0.0,48,0.00,CLR,,0.00,WeatherDisplay:10.37,2013-04-27 00:10:00,
2013-04-26 20:15:00,57.3,39.8,30.36,West,267,0.0,0.0,52,0.00,CLR,,0.00,WeatherDisplay:10.37,2013-04-27 00:15:00,
2013-04-26 20:20:00,57.0,41.4,30.36,West,267,0.0,0.0,56,0.00,CLR,,0.00,WeatherDisplay:10.37,2013-04-27 00:20:00,
2013-04-26 20:25:00,56.7,41.6,30.36,West,267,0.0,0.0,57,0.00,CLR,,0.00,WeatherDisplay:10.37,2013-04-27 00:25:00,
2013-04-26 20:30:00,56.4,40.9,30.36,West,267,0.0,0.0,56,0.00,CLR,,0.00,WeatherDisplay:10.37,2013-04-27 00:30:00,
2013-04-26 20:35:00,56.1,40.6,30.36,West,267,0.0,0.0,56,0.00,CLR,,0.00,WeatherDisplay:10.37,2013-04-27 00:35:00,
2013-04-26 20:40:00,55.9,40.0,30.36,West,267,0.0,0.0,55,0.00,CLR,,0.00,WeatherDisplay:10.37,2013-04-27 00:40:00,
2013-04-26 20:45:00,55.9,40.0,30.36,West,267,0.0,0.0,55,0.00,,,0.00,WeatherDisplay:10.37,2013-04-27 00:45:00,
2013-04-26 20:50:00,55.9,41.3,30.36,West,267,0.0,0.0,58,0.00,,,0.00,WeatherDisplay:10.37,2013-04-27 00:50:00,
2013-04-26 20:55:00,55.8,41.2,30.36,West,267,0.0,0.0,58,0.00,,,0.00,WeatherDisplay:10.37,2013-04-27 00:55:00,
2013-04-26 21:00:00,55.7,39.8,30.36,West,267,0.0,0.0,55,0.00,,,0.00,WeatherDisplay:10.37,2013-04-27 01:00:00,
2013-04-26 21:05:00,55.5,40.0,30.36,West,267,0.0,0.0,56,0.00,,,0.00,WeatherDisplay:10.37,2013-04-27 01:05:00,
2013-04-26 21:10:00,55.2,39.8,30.36,West,267,0.0,0.0,56,0.00,,,0.00,WeatherDisplay:10.37,2013-04-27 01:10:00,
2013-04-26 21:15:00,55.0,39.6,30.36,West,267,0.0,0.0,56,0.00,,,0.00,WeatherDisplay:10.37,2013-04-27 01:15:00,
2013-04-26 21:20:00,54.8,39.4,30.36,West,267,0.0,0.0,56,0.00,,,0.00,WeatherDisplay:10.37,2013-04-27 01:20:00,
2013-04-26 21:25:00,54.7,39.8,30.36,West,267,0.0,0.0,57,0.00,,,0.00,WeatherDisplay:10.37,2013-04-27 01:25:00,
2013-04-26 21:30:00,54.6,40.6,30.36,West,267,0.0,0.0,59,0.00,,,0.00,WeatherDisplay:10.37,2013-04-27 01:30:00,
2013-04-26 21:35:00,54.5,40.0,30.36,West,267,0.0,0.0,58,0.00,,,0.00,WeatherDisplay:10.37,2013-04-27 01:35:00,
2013-04-26 21:40:00,54.4,40.4,30.36,West,267,0.0,0.0,59,0.00,,,0.00,WeatherDisplay:10.37,2013-04-27 01:40:00,
2013-04-26 21:45:00,54.3,40.3,30.36,West,267,0.0,0.0,59,0.00,,,0.00,WeatherDisplay:10.37,2013-04-27 01:45:00,
2013-04-26 21:50:00,54.2,40.6,30.36,West,267,0.0,0.0,60,0.00,,,0.00,WeatherDisplay:10.37,2013-04-27 01:50:00,
2013-04-26 21:56:00,54.2,41.5,30.36,West,267,0.0,0.0,62,0.00,,,0.00,WeatherDisplay:10.37,2013-04-27 01:56:00,
2013-04-26 22:01:00,54.1,43.0,30.36,West,267,0.0,0.0,66,0.00,,,0.00,WeatherDisplay:10.37,2013-04-27 02:01:00,
2013-04-26 22:06:00,53.9,43.2,30.36,West,267,0.0,0.0,67,0.00,,,0.00,WeatherDisplay:10.37,2013-04-27 02:06:00,
2013-04-26 22:11:00,53.9,42.0,30.36,West,267,0.0,0.0,64,0.00,,,0.00,WeatherDisplay:10.37,2013-04-27 02:11:00,
2013-04-26 22:16:00,53.9,43.6,30.36,West,267,0.0,0.0,68,0.00,,,0.00,WeatherDisplay:10.37,2013-04-27 02:16:00,
2013-04-26 22:21:00,53.8,43.1,30.36,West,267,1.2,0.0,67,0.00,,,0.00,WeatherDisplay:10.37,2013-04-27 02:21:00,
2013-04-26 22:26:00,53.8,42.7,30.36,West,267,0.0,0.0,66,0.00,,,0.00,WeatherDisplay:10.37,2013-04-27 02:26:00,
2013-04-26 22:31:00,53.7,42.2,30.36,West,267,0.0,0.0,65,0.00,,,0.00,WeatherDisplay:10.37,2013-04-27 02:31:00,
2013-04-26 22:36:00,53.6,41.7,30.36,West,267,0.0,0.0,64,0.00,,,0.00,WeatherDisplay:10.37,2013-04-27 02:36:00,
2013-04-26 22:41:00,53.6,42.1,30.37,West,267,0.0,0.0,65,0.00,,,0.00,WeatherDisplay:10.37,2013-04-27 02:41:00,
2013-04-26 22:46:00,53.5,42.4,30.37,West,267,0.0,0.1,66,0.00,,,0.00,WeatherDisplay:10.37,2013-04-27 02:46:00,
2013-04-26 22:51:00,53.3,43.0,30.37,West,267,1.2,1.2,68,0.00,,,0.00,WeatherDisplay:10.37,2013-04-27 02:51:00,
2013-04-26 22:56:00,53.2,40.9,30.37,SSE,157,1.2,1.2,63,0.00,,,0.00,WeatherDisplay:10.37,2013-04-27 02:56:00,
2013-04-26 23:01:00,53.4,41.1,30.37,SSE,157,1.2,1.2,63,0.00,,,0.00,WeatherDisplay:10.37,2013-04-27 03:01:00,
2013-04-26 23:06:00,53.6,40.0,30.37,SSE,157,0.0,0.0,60,0.00,,,0.00,WeatherDisplay:10.37,2013-04-27 03:06:00,
2013-04-26 23:10:00,55.5,46.6,30.33,WNW,282,2.0,4.0,72,0.00,CLR,,0.00,WeatherDisplay:10.37,2013-04-27 03:10:00,
2013-04-26 23:11:00,53.7,41.0,30.37,SSE,157,0.0,0.0,62,0.00,,,0.00,WeatherDisplay:10.37,2013-04-27 03:11:00,
2013-04-26 23:16:00,53.6,40.5,30.37,SSE,157,0.0,0.0,61,0.00,,,0.00,WeatherDisplay:10.37,2013-04-27 03:16:00,
2013-04-26 23:21:00,53.4,41.1,30.37,SSE,157,0.0,0.0,63,0.00,,,0.00,WeatherDisplay:10.37,2013-04-27 03:21:00,
2013-04-26 23:26:00,53.3,41.4,30.37,SSE,157,0.0,0.0,64,0.00,,,0.00,WeatherDisplay:10.37,2013-04-27 03:26:00,
2013-04-26 23:31:00,53.2,42.1,30.37,SSE,157,0.0,0.0,66,0.00,,,0.00,WeatherDisplay:10.37,2013-04-27 03:31:00,
2013-04-26 23:36:00,53.1,41.6,30.37,SSE,157,0.0,0.0,65,0.00,,,0.00,WeatherDisplay:10.37,2013-04-27 03:36:00,
2013-04-26 23:41:00,53.0,41.5,30.37,SSE,157,0.0,0.0,65,0.00,,,0.00,WeatherDisplay:10.37,2013-04-27 03:41:00,
2013-04-26 23:46:00,52.9,41.4,30.37,SSE,158,0.0,0.0,65,0.00,,,0.00,WeatherDisplay:10.37,2013-04-27 03:46:00,
2013-04-26 23:51:00,52.8,41.4,30.37,SSE,158,0.0,0.0,65,0.00,,,0.00,WeatherDisplay:10.37,2013-04-27 03:51:00,
2013-04-26 23:56:00,52.7,41.7,30.37,SSE,158,1.2,0.0,66,0.00,,,0.00,WeatherDisplay:10.37,2013-04-27 03:56:00,